Location: Boncourt
(49.6160°N, 3.9448°E)
Time: 23:17:31
(UTC+00:00)

Cosmos 1980 - Pass Details

Date: 09 February 2023
Orbit: 838 x 848 km, 71.0° (Epoch: 01 April)

Event Time Altitude Azimuth Distance (km) Brightness Sun altitude
Rises 18:36:33 0° 181° (S) 3,376 6.9 -17.2°
Reaches altitude 10° 18:39:08 10° 174° (S) 2,446 6.1 -17.6°
Maximum altitude 18:44:16 38° 107° (ESE) 1,259 4.1 -18.4°
Enters shadow 18:45:46 32° 74° (ENE) 1,405 4.3 -18.7°
